Location: Gleizolles
(44.4833°N, 6.7667°E)
Time: 01:27:01
(UTC+00:00)

S-56A Canister/Altair - Pass Details

Date: 01 July 2024
Orbit: 638 x 2488 km, 38.9° (Epoch: 24 July)

Event Time Altitude Azimuth Distance (km) Brightness Sun altitude
Rises 01:06:41 0° 276° (W) 5,057 11.5 -19.4°
Reaches altitude 10° 01:11:09 10° 259° (W) 4,373 11.0 -19.1°
Enters shadow 01:16:38 18° 232° (SW) 4,053 10.7 -18.7°
Maximum altitude 01:18:37 19° 221° (SW) 4,098 - -18.5°
Drops below altitude 10° 01:27:08 10° 185° (S) 5,063 - -17.9°
Sets 01:33:04 0° 169° (S) 6,146 - -17.4°
